Location: Boiro
(42.6475°N, 8.8834°W)
Time: 01:59:13
(UTC+01:00)

Explorer 7 - Pass Details

Date: 06 December 2021
Orbit: 483 x 674 km, 50.3° (Epoch: 18 January)

Event Time Altitude Azimuth Distance (km) Brightness Sun altitude
Exits shadow 08:00:03 11° 276° (W) 1,813 8.8 -9.2°
Maximum altitude 08:03:50 36° 343° (NNW) 882 7.6 -8.6°
Drops below altitude 10° 08:07:37 10° 52° (NE) 1,784 9.8 -8.0°
Sets 08:09:54 0° 61° (ENE) 2,644 10.9 -7.6°
